COSMOS 886 DEB, 9723

Orbit data source: Space-Track

COSMOS 886 DEB, 9723 is space debris in LEO originally from a launch on Mon, 27 Dec 1976 UTC launched from the Tyuratam Missile And Space Complex (TTMTR). Debris objects in space refer to the collection of defunct objects orbiting the Earth. Examples of debris include non-operational satellites, rocket bodies, and fragments generated from explosions, collisions, or faulty payload assembly.

Loading next visibility...
Identifier
9723, 1976-126U
Orbit
LEO
Country
Flag of CISCIS
Related business
Manufacturer
Unknown
Mission
Spacecraft
Bus & Motor
Unknown
Mass
Unknown
Launch date (UTC)
1976-12-27 (49 years ago)
Launch vehicle
Unknown
Launch site
Tyuratam Missile And Space Complex (TTMTR)
Object type
Payload
Rocket body
Debris
Shape & HBR
Unknown shape, 0.1 m
Radar Cross Section
Small (<0.1 m²)

Expand to show TLE details & history
Last TLE update: 17 hours ago

TLE from 17 hours ago
0 COSMOS 886 DEB
1 09723U 76126U   26129.79049433  .00000256  00000-0  29814-3 0  9992
2 09723  65.7540 319.8709 0694360 300.2369  53.1661 13.06933384293857
Epoch: 2026-05-09T18:58Z
TLE epoch observation values (Epoch: 2026-05-09T18:58:18.710Z)
Latitude
-0.00001°
Longitude
167.69007°
Altitude
945.059 km
Speed
7.52 km/s
True Right ascension
21h 19m 29s
True Declination
0° 00' 00"
Sunlit
Object was in daylight at epoch
Visualization orbit readout
Latitude
Unknown
Longitude
Unknown
Altitude
Unknown
Speed
Unknown
Apparent Right ascension
Unknown
Apparent Declination
Unknown
Sunlit
N/A
Visualization observer readout
Local Sidereal Time
19:43:42
Azimuth
Unknown
Elevation
Unknown
Doppler factor
Unknown
Orbital elements
Apogee altitude
1,762.14 km
Perigee altitude
705.081 km
Semi-major axis
7,611.747 km
Eccentricity
0.06944
Inclination
65.754°
RAAN
319.8709°
Arg. of periapsis
300.2369°
True anomaly
59.86785°
Mean anomaly
53.1661°
Eccentric anomaly
56.48297°
Mean motion
3.26826 °/min
Orbital period
110.15 mins
BSTAR
0.00029814
Loading maneuver chart data...
Computing Atmospheric mass density...
Loading historical data...
Loading historical data...
Loading historical data...
Loading historical data...
Loading historical data...
Loading historical data...
Loading historical data...

Documentation

Showing up to 5 results
|